Wind_Speed
99 99 99 99 98 98 97 97 97 97 96 96 96 96 95 96 97 98 98 99 99 99 99 99 99 99 99 98 98 97 96 96 95 95 94 94 94 94 94 94 95 95 96 96 94 94 94 94 94 94 94 93
102 102 102 102 102 101 101 100 100 99 99 99 99 98 98 97 98 98 99 99 100 100 101 101 101 100 100 99 98 98 97 97 97 96 96 95 95 95 94 95 96 97 98 97 95 96 97 96 96 95 95 95
105 105 105 105 105 104 104 104 103 102 102 102 101 101 101 100 100 100 100 100 100 101 101 102 102 102 101 100 100 99 99 99 98 98 98 97 97 96 96 96 97 98 99 97 96 98 99 98 98 97 97 97
108 108 108 108 108 108 108 107 107 106 105 105 104 104 104 103 103 103 103 102 102 102 102 102 102 102 102 102 102 101 101 101 101 100 100 99 99 98 97 97 98 99 99 98 97 98 99 99 99 99 99 99
111 111 111 111 111 111 111 110 110 110 109 109 108 107 107 106 106 106 106 106 105 105 104 104 103 103 103 103 103 103 103 103 103 103 102 101 101 100 99 99 100 101 101 100 99 99 100 99 100 100 99 99
113 113 114 114 114 114 114 113 113 113 113 112 112 111 110 110 109 109 109 109 108 108 107 107 106 106 105 104 104 104 104 105 105 104 104 103 103 102 100 101 103 102 102 102 101 100 100 100 101 100 99 100
109 111 112 114 115 116 116 116 116 116 115 115 115 114 114 113 112 112 112 112 111 111 110 110 109 109 108 107 107 107 106 106 106 105 105 105 104 103 102 103 105 104 103 103 103 101 100 101 102 101 100 100
98 101 102 105 108 110 112 114 115 116 117 117 117 117 117 116 116 115 115 115 114 114 113 113 113 112 112 111 111 110 110 109 108 107 106 106 106 105 104 105 107 106 105 105 105 103 101 102 103 102 102 102
91 93 94 95 97 99 101 104 106 109 111 113 115 117 118 118 119 118 118 118 117 117 117 116 116 115 115 114 114 113 113 112 112 110 109 108 108 107 106 107 108 107 107 107 108 106 103 104 105 104 104 104
91 92 92 92 92 93 94 95 96 98 100 102 105 108 111 114 116 118 119 120 120 120 120 119 119 118 118 118 117 116 116 115 115 114 113 112 111 110 109 109 109 109 109 109 110 109 106 105 106 106 105 105
95 95 95 94 94 94 94 93 93 93 93 94 96 98 100 103 106 109 113 116 118 120 121 121 122 122 121 121 120 119 118 118 118 117 116 116 115 114 113 113 112 111 111 112 112 111 109 108 108 108 107 107
100 100 99 99 98 98 97 96 95 95 94 93 93 94 95 95 97 99 102 105 109 112 116 118 121 123 123 123 123 122 121 121 120 119 119 118 118 117 117 117 116 115 114 114 114 113 112 111 111 110 110 110
105 104 104 103 102 102 101 100 99 98 97 96 96 95 95 95 94 94 95 97 99 102 106 109 113 116 119 121 123 123 122 122 122 122 121 121 120 119 119 119 119 118 117 116 116 115 114 113 113 113 112 112
109 108 108 107 107 106 106 105 104 103 101 100 99 99 99 98 97 95 94 94 95 96 98 100 103 107 110 114 117 120 120 121 123 123 123 123 122 121 121 121 121 120 119 118 118 117 116 116 115 114 114 114
113 113 112 112 111 110 110 109 108 107 106 105 104 103 102 102 101 100 98 96 96 96 95 95 97 100 102 105 108 112 114 116 119 121 122 122 122 122 122 122 122 121 121 120 120 119 118 118 117 116 115 115
117 117 116 116 115 114 114 113 112 111 110 109 108 107 106 106 105 104 103 101 100 99 97 96 96 97 98 99 102 104 106 109 112 115 118 119 119 119 120 121 121 121 121 121 121 121 120 119 119 118 117 116
119 119 119 119 119 118 117 117 116 115 114 114 113 112 111 110 109 108 107 106 105 104 102 100 99 98 98 98 99 101 101 102 105 108 111 113 114 115 116 117 118 119 119 120 120 120 120 120 120 119 118 117
121 121 121 121 121 121 120 120 119 119 118 117 117 116 115 115 114 113 112 110 109 108 107 105 103 101 100 100 100 100 100 100 100 102 105 107 109 110 112 113 114 115 116 117 118 118 119 119 119 119 119 118
121 122 122 123 123 123 122 122 122 121 121 120 120 120 119 119 118 117 116 115 114 113 112 110 108 106 104 103 103 103 102 101 100 99 100 102 104 106 108 109 111 112 113 115 115 116 117 118 118 118 118 118
121 122 123 123 124 124 124 123 123 123 123 122 122 122 122 122 121 121 120 119 118 117 116 115 113 111 109 108 107 106 105 105 103 100 99 99 100 102 104 106 108 110 111 112 113 114 116 116 117 117 117 117
121 122 123 123 123 124 124 124 124 124 124 124 124 124 124 124 124 124 124 123 122 121 120 119 118 116 115 113 111 109 109 108 108 105 102 100 100 100 101 103 105 107 109 111 112 113 114 115 116 116 116 116
120 121 122 123 123 124 124 125 125 125 125 125 125 126 126 125 125 125 126 126 126 125 124 123 122 120 119 118 116 114 113 111 111 111 108 105 102 101 100 101 103 105 107 109 111 112 113 114 115 115 115 115
119 120 121 122 123 124 125 125 126 126 126 126 126 126 127 127 127 127 127 128 127 127 126 125 125 124 123 122 121 119 118 116 114 114 113 110 107 105 103 102 103 104 106 108 109 110 111 112 113 113 113 113
118 119 120 121 122 123 124 125 126 127 127 127 127 127 127 127 128 129 129 129 129 128 128 127 127 127 127 126 125 124 122 121 119 117 116 115 113 110 108 107 106 106 107 108 108 108 109 110 110 111 111 112
116 117 117 118 119 120 121 122 124 126 127 127 128 127 127 127 127 128 129 130 130 130 129 128 128 128 129 129 129 128 126 125 123 121 119 119 118 117 113 111 109 109 109 110 108 107 108 109 109 110 110 111
112 113 114 115 116 116 117 118 121 123 125 126 127 128 128 128 127 127 129 130 130 130 130 130 130 129 129 131 131 131 130 129 128 126 124 122 122 122 119 116 114 113 113 112 110 110 110 110 109 109 109 109
109 108 108 109 110 111 112 114 117 119 121 122 124 126 127 128 128 128 128 129 130 131 130 130 131 131 130 131 132 132 132 132 132 130 129 126 125 125 124 122 119 118 116 115 115 115 114 111 110 109 108 107
105 103 102 102 103 103 105 108 111 114 116 118 120 123 125 127 128 128 129 129 130 131 131 131 131 132 133 133 133 133 133 133 134 133 133 131 129 128 128 127 125 122 120 120 119 119 117 114 113 111 108 108
100 99 98 97 97 97 98 101 104 108 110 113 115 118 120 123 125 127 128 129 129 130 131 132 132 132 133 134 134 134 134 134 134 135 135 135 133 132 131 131 130 128 126 125 124 123 121 119 117 113 112 113
97 96 94 94 93 92 93 97 100 103 105 107 109 111 114 117 121 124 126 127 128 129 129 131 133 133 133 133 135 136 136 136 136 136 136 136 136 135 134 134 134 133 131 129 128 127 126 124 121 118 118 118
93 92 91 91 90 89 90 93 95 99 101 102 104 106 108 111 115 119 122 124 125 127 128 129 131 133 133 133 134 135 137 137 138 138 138 138 138 137 136 136 137 137 136 134 132 131 130 128 126 125 123 122
Wind_Direction
257 257 257 256 256 256 255 255 255 254 254 254 253 253 252 252 252 252 251 251 251 251 251 251 251 251 251 251 251 251 251 251 251 250 250 249 248 248 247 247 247 248 248 248 248 248 248 248 248 248 248 248
257 257 257 256 256 256 255 255 254 254 254 253 253 253 252 252 251 251 251 251 251 251 251 251 251 251 251 251 251 251 251 251 251 250 250 250 249 249 248 248 248 248 248 248 248 248 249 248 248 248 248 249
258 257 257 257 256 256 255 255 254 254 253 253 253 253 252 252 252 251 251 251 251 251 251 251 251 251 251 251 251 251 251 251 251 251 250 250 249 249 248 248 248 248 249 248 248 249 249 249 249 249 249 250
258 258 258 257 257 257 256 256 255 254 254 253 253 252 252 252 252 252 251 251 251 251 250 251 251 251 251 252 252 252 251 251 251 251 250 250 250 249 249 248 248 248 249 249 248 249 249 249 250 250 250 250
259 259 259 258 258 257 257 256 256 255 255 254 254 253 252 252 252 251 251 251 251 251 251 250 250 250 250 251 251 251 251 251 251 251 251 250 250 250 249 249 249 248 249 249 248 248 249 250 250 250 250 251
259 259 259 259 258 258 257 257 257 256 256 255 255 254 254 253 252 252 252 251 251 251 251 251 251 250 250 250 250 250 250 250 251 251 251 251 251 250 250 250 250 249 249 249 248 248 249 249 249 250 250 251
260 259 259 258 258 258 258 257 257 257 256 256 256 255 255 254 254 253 252 252 252 251 251 251 251 251 250 250 249 249 249 249 249 250 250 251 251 251 251 250 250 250 249 249 249 248 248 249 249 249 249 250
260 260 259 259 258 258 257 257 257 256 256 256 256 255 255 255 254 254 253 253 253 252 252 251 251 251 251 250 250 250 249 249 249 249 249 250 250 251 251 250 251 251 250 250 249 248 248 248 249 249 248 249
261 260 260 259 259 259 258 257 256 256 256 255 255 255 254 254 254 254 254 253 253 253 252 252 252 251 251 251 250 250 250 250 249 249 249 248 249 250 250 250 250 251 251 250 250 250 248 248 248 248 248 248
260 260 260 260 259 259 259 258 257 257 256 256 255 254 254 253 253 253 253 253 253 252 252 252 252 252 251 251 251 250 250 250 250 250 249 249 248 248 249 249 250 250 250 250 251 251 250 249 249 249 249 249
260 260 260 259 259 259 259 259 258 258 257 256 256 255 254 253 253 252 252 252 252 252 251 251 251 251 251 251 251 251 250 251 250 250 250 250 249 249 248 248 249 249 249 250 251 251 250 250 249 249 249 249
259 259 259 258 258 258 258 258 258 258 258 257 257 256 255 254 254 253 252 252 252 251 251 250 250 250 250 250 250 250 250 250 250 250 250 250 250 249 249 249 249 248 249 249 250 250 250 250 250 250 249 249
259 258 258 258 258 257 257 257 257 257 257 257 257 257 256 255 254 254 253 253 252 252 251 251 250 250 250 249 250 249 249 249 250 250 250 250 249 249 249 249 249 249 249 249 250 250 250 250 250 250 250 250
260 259 259 258 258 257 257 257 256 256 256 255 256 256 256 256 255 254 253 253 253 252 252 252 251 251 250 249 249 249 248 248 248 248 248 249 249 249 249 249 249 249 249 249 250 250 250 250 250 250 250 250
260 260 259 259 258 257 257 257 256 256 256 255 255 255 255 255 256 255 254 253 253 253 252 252 252 251 251 250 249 249 248 248 247 247 247 247 247 248 248 248 249 249 249 249 249 249 249 249 250 250 250 250
261 260 260 259 258 258 257 257 256 256 256 255 255 254 254 254 255 255 255 254 253 252 252 252 252 252 252 251 250 249 248 248 248 247 247 247 247 247 247 247 247 248 248 248 248 248 248 248 249 249 249 249
262 262 261 260 259 258 257 257 256 256 256 255 255 255 254 254 254 254 254 254 253 253 252 251 251 252 252 252 252 251 250 248 248 247 247 247 246 246 246 246 246 247 247 247 247 247 247 247 248 248 248 248
262 262 261 261 260 259 258 257 256 256 255 255 255 254 254 254 253 253 253 253 253 253 252 251 251 251 251 251 251 252 251 249 248 247 247 247 247 246 246 246 246 246 246 246 246 246 247 247 247 247 247 247
261 261 261 261 260 260 259 258 257 256 255 254 254 254 254 253 253 253 253 252 252 252 253 252 251 250 250 250 250 251 251 250 249 248 247 246 246 246 246 245 245 245 245 246 246 246 246 246 246 246 246 247
260 260 260 260 260 260 259 258 258 257 256 255 254 253 253 253 253 252 252 252 252 252 252 252 251 251 250 249 249 250 251 251 250 249 247 247 246 246 246 245 245 245 245 245 245 245 246 246 246 246 246 246
259 259 259 259 259 259 259 258 257 257 256 256 255 254 253 252 252 252 251 251 251 251 251 251 251 251 251 250 249 249 249 250 251 250 248 247 246 246 246 245 245 245 245 245 245 245 245 245 245 245 245 245
257 257 257 257 257 257 257 257 257 256 256 255 254 254 253 253 252 251 251 251 250 250 250 250 250 250 250 250 250 249 249 249 250 250 249 248 247 246 246 245 245 245 245 245 245 244 244 244 245 245 245 245
256 255 255 255 255 255 255 255 255 255 255 255 254 253 253 253 252 252 251 251 250 249 249 249 249 249 250 250 250 249 249 248 248 249 250 249 248 247 246 245 245 245 245 245 245 245 244 244 244 245 245 245
257 256 255 254 254 254 254 254 254 254 255 254 254 253 253 252 252 251 251 251 250 250 249 248 248 248 249 249 249 249 249 249 248 248 249 250 249 248 246 246 245 245 245 246 245 245 245 245 245 245 245 245
259 258 257 256 255 254 254 254 254 254 254 254 254 254 253 252 252 251 251 251 250 250 250 249 247 247 247 248 248 249 249 249 248 248 247 248 249 248 247 246 246 246 246 246 246 246 246 246 245 245 245 244
261 260 258 257 256 256 255 254 254 254 254 254 254 254 254 253 253 252 251 251 251 250 250 249 249 248 247 247 247 247 248 248 248 248 247 247 247 249 248 247 246 246 246 246 246 246 246 246 245 245 245 245
265 264 262 260 259 258 256 255 255 254 254 254 254 254 254 254 253 253 251 251 251 250 250 249 249 249 248 247 247 247 247 247 247 248 248 247 246 247 248 248 247 246 247 247 247 246 246 246 246 246 246 246
269 267 266 264 262 260 259 257 256 255 254 253 253 253 253 253 253 253 252 251 250 250 250 249 248 248 248 248 247 247 246 246 246 247 247 247 246 246 247 248 247 246 246 247 247 247 247 247 246 246 246 246
270 269 267 265 263 261 260 258 257 256 255 253 252 252 252 252 253 252 252 251 251 249 249 250 249 247 247 247 247 247 246 246 246 246 246 246 246 245 245 246 247 247 246 246 246 247 247 247 247 247 246 246
271 270 268 267 265 262 260 258 257 256 255 254 253 252 251 251 251 252 251 251 250 250 249 248 249 248 247 246 246 246 246 246 246 246 246 245 245 245 244 244 246 246 246 245 246 246 247 247 247 246 246 246
274 272 270 268 266 264 261 259 258 257 256 255 253 252 252 251 251 251 251 250 249 249 249 248 247 248 248 247 246 246 245 245 245 245 245 245 245 244 244 243 244 245 246 245 245 245 246 247 247 246 246 246
Height
10629 10630 10631 10632 10633 10635 10636 10638 10640 10641 10643 10644 10646 10648 10651 10653 10653 10654 10656 10658 10659 10660 10662 10664 10665 10668 10670 10672 10674 10676 10679 10681 10683 10685 10688 10691 10694 10697 10700 10702 10704 10704 10704 10707 10713 10715 10716 10718 10720 10721 10723 10726
10616 10617 10617 10619 10620 10622 10624 10625 10627 10628 10630 10632 10633 10635 10638 10640 10641 10642 10644 10646 10647 10648 10650 10651 10654 10656 10659 10662 10664 10666 10669 10671 10672 10674 10677 10680 10683 10686 10690 10692 10693 10693 10693 10698 10704 10704 10705 10708 10710 10712 10714 10716
10602 10603 10604 10605 10607 10609 10610 10612 10614 10615 10617 10619 10621 10622 10624 10627 10629 10630 10631 10633 10635 10637 10638 10639 10642 10645 10647 10650 10653 10656 10658 10661 10662 10664 10667 10669 10672 10675 10679 10681 10682 10682 10682 10688 10694 10694 10694 10697 10700 10702 10704 10706
10589 10590 10590 10591 10593 10594 10596 10598 10600 10601 10604 10605 10607 10609 10611 10614 10616 10617 10619 10621 10623 10624 10626 10628 10631 10634 10636 10638 10641 10645 10647 10649 10651 10653 10655 10658 10661 10664 10669 10671 10671 10671 10672 10677 10682 10683 10684 10687 10690 10691 10694 10697
10575 10576 10576 10577 10578 10580 10581 10583 10585 10587 10589 10591 10593 10595 10597 10600 10603 10604 10605 10608 10610 10612 10614 10616 10619 10621 10625 10627 10629 10632 10634 10637 10639 10641 10644 10647 10650 10654 10659 10660 10659 10660 10662 10665 10670 10672 10674 10677 10679 10681 10684 10687
10560 10562 10562 10562 10563 10564 10567 10569 10571 10572 10574 10576 10578 10581 10583 10586 10589 10590 10592 10594 10596 10599 10601 10604 10606 10608 10611 10614 10616 10619 10621 10624 10626 10629 10632 10635 10639 10642 10649 10650 10646 10649 10652 10654 10658 10662 10666 10667 10667 10671 10674 10676
10544 10546 10547 10547 10547 10549 10552 10554 10555 10558 10560 10561 10564 10566 10568 10571 10574 10576 10578 10580 10582 10585 10588 10591 10592 10594 10597 10601 10603 10605 10608 10611 10614 10617 10620 10623 10626 10630 10638 10637 10633 10638 10642 10643 10646 10651 10657 10656 10656 10660 10664 10665
10529 10530 10532 10532 10532 10533 10536 10538 10539 10542 10544 10546 10548 10550 10553 10555 10558 10561 10563 10565 10568 10570 10573 10576 10578 10580 10583 10586 10589 10592 10594 10597 10601 10605 10608 10611 10613 10618 10624 10623 10621 10626 10631 10632 10633 10639 10647 10646 10645 10649 10653 10654
10516 10516 10517 10518 10518 10518 10520 10522 10523 10525 10527 10530 10532 10534 10537 10540 10542 10545 10547 10550 10552 10554 10557 10560 10563 10565 10567 10571 10575 10578 10581 10583 10587 10591 10595 10598 10601 10605 10609 10609 10610 10614 10618 10620 10619 10625 10636 10636 10634 10637 10641 10642
10503 10503 10503 10504 10504 10504 10505 10506 10509 10511 10513 10515 10517 10518 10520 10523 10526 10529 10531 10533 10535 10538 10541 10544 10547 10549 10551 10555 10559 10563 10566 10568 10572 10577 10581 10584 10587 10591 10593 10594 10598 10602 10605 10607 10606 10612 10623 10625 10623 10626 10629 10630
10489 10489 10489 10490 10490 10491 10492 10492 10494 10496 10499 10501 10501 10502 10504 10507 10511 10513 10515 10517 10519 10522 10525 10528 10530 10532 10535 10539 10543 10548 10551 10553 10557 10562 10566 10570 10573 10577 10578 10579 10583 10588 10592 10594 10594 10599 10609 10613 10613 10615 10617 10618
10474 10474 10475 10476 10476 10477 10478 10479 10481 10482 10484 10487 10487 10488 10489 10492 10495 10498 10500 10502 10504 10506 10509 10512 10514 10516 10520 10523 10526 10532 10537 10538 10542 10547 10551 10554 10559 10562 10564 10565 10569 10574 10578 10580 10582 10586 10594 10599 10601 10604 10606 10606
10459 10459 10460 10461 10462 10462 10463 10464 10466 10468 10470 10472 10474 10474 10475 10477 10481 10484 10486 10488 10490 10492 10494 10497 10499 10502 10505 10508 10509 10515 10522 10524 10525 10530 10534 10538 10543 10548 10550 10552 10554 10559 10564 10566 10569 10573 10578 10583 10587 10591 10593 10594
10442 10443 10444 10445 10446 10447 10448 10449 10451 10453 10456 10458 10460 10461 10461 10463 10466 10469 10472 10475 10477 10478 10481 10483 10485 10488 10490 10493 10495 10498 10506 10509 10509 10513 10518 10523 10528 10532 10535 10537 10540 10546 10551 10553 10555 10559 10563 10566 10571 10576 10580 10582
10424 10426 10427 10428 10430 10431 10432 10434 10436 10438 10440 10442 10445 10447 10447 10449 10451 10453 10457 10461 10463 10464 10468 10471 10471 10474 10475 10478 10481 10483 10489 10493 10494 10497 10501 10507 10512 10516 10520 10523 10526 10531 10536 10539 10541 10544 10547 10550 10554 10560 10565 10568
10406 10407 10409 10410 10412 10414 10416 10417 10419 10422 10424 10426 10429 10431 10433 10434 10436 10438 10441 10445 10448 10450 10454 10457 10458 10460 10462 10464 10466 10468 10474 10478 10481 10483 10486 10492 10497 10502 10505 10508 10512 10516 10520 10524 10526 10529 10532 10535 10539 10543 10548 10553
10388 10388 10389 10391 10393 10395 10398 10400 10403 10405 10407 10410 10412 10415 10417 10419 10420 10423 10426 10429 10432 10435 10439 10443 10446 10447 10449 10451 10451 10453 10458 10464 10467 10470 10473 10477 10482 10487 10491 10494 10497 10500 10504 10508 10511 10515 10517 10521 10524 10527 10532 10537
10369 10369 10370 10371 10373 10376 10379 10381 10384 10387 10390 10393 10395 10397 10400 10402 10404 10407 10410 10413 10416 10418 10422 10427 10432 10435 10437 10438 10438 10438 10442 10448 10453 10457 10461 10464 10467 10473 10477 10480 10482 10486 10490 10493 10496 10500 10502 10506 10509 10513 10518 10521
10352 10351 10351 10352 10353 10355 10358 10362 10364 10367 10371 10374 10377 10379 10382 10384 10387 10390 10393 10397 10400 10403 10405 10409 10415 10420 10424 10425 10425 10425 10427 10431 10437 10443 10448 10452 10454 10458 10463 10467 10469 10472 10475 10478 10482 10485 10487 10490 10494 10499 10504 10507
10334 10333 10333 10334 10335 10335 10338 10341 10344 10347 10350 10354 10358 10360 10364 10366 10370 10373 10376 10380 10383 10386 10389 10392 10397 10403 10407 10410 10412 10414 10414 10415 10420 10428 10434 10439 10442 10445 10449 10453 10456 10458 10461 10464 10467 10470 10472 10476 10480 10485 10489 10493
10314 10314 10315 10316 10316 10317 10318 10320 10324 10326 10329 10333 10337 10339 10343 10347 10351 10355 10357 10361 10365 10369 10372 10376 10380 10385 10390 10394 10397 10401 10402 10402 10405 10411 10418 10424 10429 10433 10436 10439 10443 10446 10447 10450 10452 10455 10458 10461 10465 10470 10474 10478
10295 10295 10295 10296 10298 10298 10299 10300 10302 10305 10308 10311 10315 10319 10322 10326 10331 10335 10337 10340 10345 10351 10356 10360 10364 10369 10373 10376 10381 10385 10389 10392 10392 10393 10401 10409 10415 10420 10424 10427 10430 10432 10434 10434 10436 10440 10444 10447 10452 10457 10461 10466
10274 10275 10275 10276 10277 10279 10280 10281 10283 10285 10287 10290 10294 10298 10301 10305 10310 10314 10316 10319 10324 10331 10338 10343 10347 10352 10355 10358 10363 10368 10372 10378 10381 10382 10385 10392 10400 10406 10410 10414 10416 10417 10418 10420 10422 10427 10431 10434 10439 10444 10449 10454
10253 10255 10256 10257 10259 10261 10263 10264 10266 10267 10268 10270 10274 10278 10282 10286 10290 10293 10296 10299 10303 10309 10317 10324 10330 10334 10338 10341 10345 10350 10356 10361 10366 10371 10373 10375 10381 10388 10394 10399 10402 10404 10405 10406 10409 10413 10417 10422 10427 10432 10437 10442
10235 10237 10239 10240 10243 10245 10248 10249 10250 10251 10251 10252 10255 10259 10262 10267 10271 10275 10277 10280 10284 10290 10296 10303 10311 10317 10321 10323 10327 10332 10338 10343 10348 10354 10360 10361 10362 10368 10377 10384 10389 10392 10391 10392 10396 10402 10406 10410 10414 10419 10424 10429
10217 10219 10221 10224 10227 10230 10233 10235 10234 10234 10235 10236 10238 10241 10244 10247 10252 10257 10261 10263 10265 10270 10278 10283 10290 10298 10303 10306 10309 10315 10320 10325 10330 10335 10342 10348 10349 10351 10358 10368 10374 10375 10376 10380 10386 10390 10390 10393 10400 10405 10410 10416
10198 10201 10204 10207 10211 10214 10217 10219 10218 10218 10220 10221 10222 10224 10226 10228 10233 10238 10243 10247 10249 10251 10259 10266 10271 10277 10283 10288 10291 10296 10302 10306 10311 10317 10323 10330 10336 10338 10341 10348 10356 10360 10364 10369 10372 10371 10373 10383 10389 10392 10398 10408
10181 10184 10187 10189 10192 10196 10199 10202 10202 10202 10203 10205 10205 10207 10209 10210 10213 10218 10223 10228 10232 10235 10239 10245 10253 10258 10262 10267 10271 10276 10283 10288 10293 10299 10305 10311 10318 10324 10325 10329 10337 10346 10352 10352 10353 10356 10363 10371 10373 10379 10392 10398
10163 10164 10167 10169 10172 10177 10181 10183 10183 10181 10182 10185 10187 10190 10192 10192 10193 10197 10202 10207 10211 10218 10223 10225 10230 10238 10243 10247 10252 10256 10263 10270 10275 10280 10286 10291 10298 10305 10311 10315 10318 10326 10333 10334 10338 10343 10347 10353 10359 10372 10381 10376
10146 10146 10148 10150 10152 10158 10161 10162 10163 10161 10162 10165 10168 10172 10175 10176 10176 10176 10180 10186 10191 10197 10205 10209 10210 10215 10223 10229 10233 10238 10243 10250 10255 10260 10266 10271 10277 10284 10293 10299 10300 10304 10312 10319 10324 10327 10331 10339 10347 10356 10358 10355
10127 10128 10130 10130 10133 10137 10140 10141 10143 10143 10143 10147 10151 10154 10157 10159 10160 10159 10158 10164 10172 10177 10182 10190 10194 10197 10202 10209 10215 10219 10223 10230 10236 10240 10245 10249 10255 10262 10271 10279 10282 10288 10295 10300 10307 10313 10318 10324 10329 10335 10340 10344